When you browse on this site, cookies collect data to enhance your experience and personalize the content and advertising you see.
Visit our Privacy Policy to learn more. By continuing to use the site, you agree to this use of cookies and data.
  • In Portugal
  • List of Countries
  • For 7 days
  • Water Temperature
  • Satellite Maps
  • Weather Map
  • Weather Widgets
  • user-avatar
    Login

    Hourly Weather Dzierzgowo

    Today, 24 June, Monday

    Time Temperature Precipitation Wind Pressure Humidity
    00:00 +13°C° 0 mm 3 mps 754 mmHg 93%
    01:00 +13°C° 0 mm 3 mps 755 mmHg 94%
    02:00 +13°C° 0 mm 3 mps 755 mmHg 94%
    03:00 +12°C° 0 mm 3 mps 755 mmHg 95%
    04:00 +12°C° 0 mm 3 mps 755 mmHg 95%
    05:00 +14°C° 0 mm 3 mps 755 mmHg 89%
    06:00 +17°C° 0 mm 3 mps 755 mmHg 84%
    07:00 +19°C° 0 mm 3 mps 756 mmHg 79%
    08:00 +20°C° 0 mm 3 mps 756 mmHg 75%
    09:00 +22°C° 0 mm 3 mps 756 mmHg 70%
    10:00 +24°C° 0 mm 3 mps 756 mmHg 65%
    11:00 +25°C° 0 mm 3 mps 756 mmHg 63%
    12:00 +25°C° 0 mm 3 mps 756 mmHg 60%
    13:00 +26°C° 0 mm 3 mps 756 mmHg 57%
    14:00 +26°C° 0 mm 3 mps 756 mmHg 58%
    15:00 +26°C° 0 mm 3 mps 756 mmHg 59%
    16:00 +26°C° 0 mm 3 mps 756 mmHg 59%
    17:00 +24°C° 0 mm 3 mps 756 mmHg 65%
    18:00 +22°C° 0 mm 3 mps 756 mmHg 70%
    19:00 +21°C° 0 mm 3 mps 756 mmHg 75%
    20:00 +19°C° 0 mm 3 mps 757 mmHg 77%
    21:00 +18°C° 0 mm 3 mps 757 mmHg 80%
    22:00 +16°C° 0 mm 3 mps 757 mmHg 83%
    23:00 +16°C° 0 mm 3 mps 757 mmHg 86%

    Tomorrow, 25 June, Tuesday

    Time Temperature Precipitation Wind Pressure Humidity
    00:00 +14°C° 0 mm 3 mps 758 mmHg 88%
    01:00 +14°C° 0 mm 3 mps 758 mmHg 91%
    02:00 +14°C° 0 mm 3 mps 758 mmHg 91%
    03:00 +13°C° 0 mm 3 mps 757 mmHg 91%
    04:00 +13°C° 0 mm 3 mps 757 mmHg 92%
    05:00 +16°C° 0 mm 3 mps 757 mmHg 87%
    06:00 +18°C° 0 mm 3 mps 758 mmHg 82%
    07:00 +19°C° 0 mm 3 mps 758 mmHg 78%
    08:00 +21°C° 0 mm 3 mps 758 mmHg 73%
    09:00 +22°C° 0 mm 3 mps 758 mmHg 68%
    10:00 +25°C° 0 mm 4 mps 758 mmHg 62%
    11:00 +25°C° 0 mm 4 mps 758 mmHg 61%
    12:00 +26°C° 0 mm 4 mps 757 mmHg 60%
    13:00 +27°C° 0 mm 4 mps 757 mmHg 59%
    14:00 +27°C° 0 mm 4 mps 757 mmHg 59%
    15:00 +27°C° 0 mm 4 mps 756 mmHg 60%
    16:00 +27°C° 0 mm 4 mps 756 mmHg 61%
    17:00 +26°C° 0 mm 3 mps 756 mmHg 66%
    18:00 +25°C° 0 mm 3 mps 756 mmHg 71%
    19:00 +24°C° 0 mm 3 mps 756 mmHg 75%
    20:00 +21°C° 0 mm 3 mps 756 mmHg 76%
    21:00 +20°C° 0 mm 3 mps 756 mmHg 77%
    22:00 +19°C° 0 mm 3 mps 756 mmHg 78%
    23:00 +19°C° 0 mm 3 mps 756 mmHg 80%

    Day after tomorrow, 26 June, Wednesday

    Time Temperature Precipitation Wind Pressure Humidity
    00:00 +18°C° 0 mm 3 mps 756 mmHg 81%
    01:00 +18°C° 0 mm 3 mps 756 mmHg 83%
    02:00 +17°C° 0 mm 3 mps 755 mmHg 84%
    03:00 +17°C° 0 mm 3 mps 755 mmHg 86%
    04:00 +17°C° 0 mm 3 mps 754 mmHg 87%
    05:00 +18°C° 0 mm 3 mps 754 mmHg 85%
    06:00 +20°C° 0 mm 3 mps 754 mmHg 82%
    07:00 +21°C° 0 mm 3 mps 754 mmHg 79%
    08:00 +24°C° 0 mm 3 mps 754 mmHg 75%
    09:00 +25°C° 0 mm 3 mps 753 mmHg 71%
    10:00 +27°C° 0 mm 4 mps 753 mmHg 67%
    11:00 +28°C° 0 mm 4 mps 753 mmHg 66%
    12:00 +29°C° 0 mm 4 mps 752 mmHg 64%
    13:00 +30°C° 0 mm 4 mps 752 mmHg 63%
    14:00 +30°C° 0 mm 4 mps 751 mmHg 63%
    15:00 +30°C° 0 mm 4 mps 751 mmHg 64%
    16:00 +30°C° 0 mm 4 mps 750 mmHg 64%
    17:00 +29°C° 0.3 mm 4 mps 749 mmHg 70%
    18:00 +28°C° 0.3 mm 3 mps 749 mmHg 75%
    19:00 +27°C° 0.3 mm 3 mps 748 mmHg 80%
    20:00 +26°C° 0.3 mm 3 mps 748 mmHg 83%
    21:00 +25°C° 0.3 mm 3 mps 748 mmHg 86%
    22:00 +24°C° 0.3 mm 3 mps 748 mmHg 90%
    23:00 +22°C° 0.2 mm 3 mps 747 mmHg 91%

    27 June, Thursday

    Time Temperature Precipitation Wind Pressure Humidity
    00:00 +22°C° 0.2 mm 3 mps 747 mmHg 92%
    01:00 +21°C° 0.2 mm 4 mps 746 mmHg 94%
    02:00 +21°C° 0 mm 4 mps 746 mmHg 93%
    03:00 +20°C° 0 mm 5 mps 746 mmHg 93%
    04:00 +20°C° 0 mm 6 mps 746 mmHg 92%
    05:00 +20°C° 0 mm 6 mps 747 mmHg 91%
    06:00 +19°C° 0 mm 6 mps 747 mmHg 90%
    07:00 +19°C° 0 mm 6 mps 747 mmHg 89%
    08:00 +20°C° 0.1 mm 7 mps 747 mmHg 84%
    09:00 +20°C° 0.1 mm 7 mps 748 mmHg 79%
    10:00 +20°C° 0.1 mm 7 mps 748 mmHg 75%
    11:00 +21°C° 0 mm 7 mps 748 mmHg 69%
    12:00 +22°C° 0 mm 7 mps 749 mmHg 64%
    13:00 +23°C° 0 mm 7 mps 749 mmHg 59%
    14:00 +22°C° 0 mm 7 mps 749 mmHg 59%
    15:00 +22°C° 0 mm 7 mps 749 mmHg 60%
    16:00 +21°C° 0 mm 7 mps 749 mmHg 60%
    17:00 +20°C° 0 mm 6 mps 749 mmHg 64%
    18:00 +19°C° 0 mm 5 mps 749 mmHg 67%
    19:00 +17°C° 0 mm 4 mps 749 mmHg 71%
    20:00 +16°C° 0 mm 3 mps 750 mmHg 75%
    21:00 +13°C° 0 mm 3 mps 750 mmHg 79%
    22:00 +12°C° 0 mm 3 mps 750 mmHg 83%
    23:00 +13°C° 0 mm 2 mps 750 mmHg 80%

    28 June, Friday

    Time Temperature Precipitation Wind Pressure Humidity
    00:00 +14°C° 0 mm 2 mps 750 mmHg 77%
    01:00 +14°C° 0 mm 1 mps 750 mmHg 74%
    02:00 +15°C° 0 mm 2 mps 749 mmHg 72%
    03:00 +15°C° 0 mm 2 mps 749 mmHg 70%
    04:00 +15°C° 0 mm 2 mps 749 mmHg 68%
    05:00 +15°C° 0 mm 2 mps 748 mmHg 69%
    06:00 +16°C° 0 mm 2 mps 748 mmHg 71%
    07:00 +16°C° 0 mm 2 mps 748 mmHg 73%
    08:00 +17°C° 0.1 mm 3 mps 748 mmHg 73%
    09:00 +19°C° 0.1 mm 4 mps 748 mmHg 72%
    10:00 +20°C° 0.1 mm 5 mps 748 mmHg 72%
    11:00 +21°C° 0.1 mm 5 mps 748 mmHg 66%
    12:00 +21°C° 0.1 mm 6 mps 748 mmHg 61%
    13:00 +22°C° 0.1 mm 7 mps 747 mmHg 55%
    14:00 +21°C° 0 mm 7 mps 748 mmHg 57%
    15:00 +20°C° 0 mm 7 mps 748 mmHg 58%
    16:00 +18°C° 0 mm 7 mps 748 mmHg 60%
    17:00 +17°C° 0 mm 7 mps 748 mmHg 64%
    18:00 +15°C° 0 mm 6 mps 749 mmHg 68%
    19:00 +14°C° 0 mm 6 mps 749 mmHg 71%
    20:00 +13°C° 0 mm 5 mps 749 mmHg 74%
    21:00 +12°C° 0 mm 4 mps 750 mmHg 76%
    22:00 +11°C° 0 mm 3 mps 750 mmHg 79%
    23:00 +11°C° 0 mm 4 mps 750 mmHg 81%

    29 June, Saturday

    Time Temperature Precipitation Wind Pressure Humidity
    00:00 +11°C° 0 mm 4 mps 750 mmHg 83%
    01:00 +10°C° 0 mm 4 mps 750 mmHg 85%
    02:00 +11°C° 0 mm 4 mps 750 mmHg 85%
    03:00 +11°C° 0 mm 4 mps 750 mmHg 86%
    04:00 +11°C° 0 mm 4 mps 750 mmHg 86%
    05:00 +12°C° 0 mm 4 mps 750 mmHg 79%
    06:00 +14°C° 0 mm 5 mps 750 mmHg 72%
    07:00 +15°C° 0 mm 5 mps 751 mmHg 64%
    08:00 +16°C° 0.1 mm 5 mps 751 mmHg 63%
    09:00 +17°C° 0.1 mm 5 mps 751 mmHg 63%
    10:00 +17°C° 0.1 mm 5 mps 750 mmHg 62%
    11:00 +19°C° 0.4 mm 5 mps 750 mmHg 61%
    12:00 +19°C° 0.4 mm 5 mps 750 mmHg 60%
    13:00 +20°C° 0.4 mm 5 mps 749 mmHg 59%
    14:00 +20°C° 0 mm 6 mps 749 mmHg 57%
    15:00 +20°C° 0 mm 6 mps 749 mmHg 56%
    16:00 +20°C° 0 mm 7 mps 749 mmHg 54%
    17:00 +17°C° 0 mm 6 mps 749 mmHg 59%
    18:00 +16°C° 0 mm 5 mps 749 mmHg 63%
    19:00 +14°C° 0 mm 5 mps 750 mmHg 68%
    20:00 +12°C° 0 mm 4 mps 750 mmHg 73%
    21:00 +11°C° 0 mm 4 mps 750 mmHg 78%
    22:00 +9°C° 0 mm 3 mps 750 mmHg 83%
    23:00 +9°C° 0 mm 3 mps 751 mmHg 83%
    Show more